Location: Newark
(45.5000°N, 11.4167°E)
Time: 13:00:19
(UTC+00:00)

Transit 2A Rocket - Pass Details

Date: 31 August 2019
Orbit: 592 x 911 km, 66.7° (Epoch: 22 September)

Event Time Altitude Azimuth Distance (km) Brightness Sun altitude
Rises 02:04:20 0° 317° (NW) 2,958 8.1 -23.8°
Enters shadow 02:05:57 - 311° (NW) 2,360 7.5 -23.6°
Reaches altitude 10° 02:06:58 10° 304° (NW) 2,004 - -23.4°
Maximum altitude 02:10:38 25° 249° (WSW) 1,229 - -22.9°
Drops below altitude 10° 02:14:09 10° 194° (SSW) 1,923 - -22.5°
Sets 02:16:38 0° 181° (S) 2,813 - -22.2°
